Welcome to the New NWS' Forecast!
Most changes are behind the scenes, but click here for differences you might notice.

Regional Weather Roundup (RWR)

Issued by National Weather Service (NWS)

                            
851 
ASUS46 KSEW 201210
RWRWA 

WASHINGTON REGIONAL WEATHER ROUNDUP
NATIONAL WEATHER SERVICE SEATTLE WA
500 AM PDT MON AUG 20 2018

NOTE:"FAIR" INDICATES FEW OR NO CLOUDS BELOW 12,000 FEET WITH NO 
SIGNIFICANT WEATHER AND/OR OBSTRUCTIONS TO VISIBILITY.

WAZ507-509-555>559-201300-
SEATTLE, TACOMA, EVERETT, AND VICINITY
  
CITY           SKY/WX    TMP DP  RH WIND       PRES   REMARKS
EVERETT        CLOUDY    57  53  86 NW6       30.04S                  
6HR MIN TEMP:  57; 6HR MAX TEMP:  65;                                

BOEING FIELD   CLEAR     61  54  77 CALM      30.03R                  
6HR MIN TEMP:  61; 6HR MAX TEMP:  68;                                

RENTON         MOCLDY    61  56  83 CALM      30.03R                  
6HR MIN TEMP:  61; 6HR MAX TEMP:  70;                                

SEATAC AIRPORT CLOUDY    61  54  77 N3        30.04R HAZE             
6HR MIN TEMP:  61; 6HR MAX TEMP:  69;                                

JBLM-MCCHORD   NOT AVBL                                               
PUYALLUP       CLOUDY    55  55 100 CALM      30.04S FOG              
BREMERTON      CLEAR     53  50  89 CALM      30.04S FOG              
6HR MIN TEMP:  53; 6HR MAX TEMP:  64;                                

JBLM-FT LEWIS  CLEAR     56  56  99 CALM      30.03R                  
6HR MIN TEMP:  56; 6HR MAX TEMP:  67;                                

TACOMA NARROWS CLOUDY    57  53  86 CALM      30.05R                  
6HR MIN TEMP:  57; 6HR MAX TEMP:  65;                                

$$
 
WAZ001-503-506-510-514-515-201300-
NORTH INTERIOR
  
CITY           SKY/WX    TMP DP  RH WIND       PRES   REMARKS
BELLINGHAM     CLOUDY    53  50  89 CALM      30.04S FOG              
6HR MIN TEMP:  52; 6HR MAX TEMP:  59;                                

FRIDAY HARBOR  CLOUDY    51  49  92 CALM      30.06R                  
6HR MIN TEMP:  51; 6HR MAX TEMP:  54;                                

EASTSOUND      MOCLDY    63  61  94 N3        30.04R FOG              
PORT ANGELES   CLOUDY    53  50  89 CALM      30.06R FOG              
6HR MIN TEMP:  51; 6HR MAX TEMP:  56;                                

EDIZ HOOK      CLOUDY    52  51  95 CALM      30.06R                  
6HR MIN TEMP:  52; 6HR MAX TEMP:  54;                                

PORT TOWNSEND  CLOUDY    50  50 100 CALM      30.04S                  
NAS WHIDBEY    MOCLDY    54  51  90 CALM      30.09R                  
6HR MIN TEMP:  53; 6HR MAX TEMP:  56;                                

ARLINGTON      CLEAR     55  54  96 CALM      30.04S                  
6HR MIN TEMP:  54; 6HR MAX TEMP:  61;                                

BURLINGTON     FOG       54  54 100 NW3       30.04S VSB 1/2          
$$
 
WAZ020-022-039-040-504-511-512-201300-
SOUTHWEST INTERIOR
  
CITY           SKY/WX    TMP DP  RH WIND       PRES   REMARKS
SHELTON        CLOUDY    54  53  97 W5        30.02S FOG              
6HR MIN TEMP:  54; 6HR MAX TEMP:  62;                                

OLYMPIA        CLOUDY    53  50  89 CALM      30.04R                  
6HR MIN TEMP:  51; 6HR MAX TEMP:  65;                                

CHEHALIS       CLOUDY    55  55 100 N5        30.04S                  
KELSO          CLOUDY    60  56  86 N3        30.03S                  
6HR MIN TEMP:  59; 6HR MAX TEMP:  61;                                

VANCOUVER      CLEAR     61  57  87 CALM      30.00S                  
6HR MIN TEMP:  60; 6HR MAX TEMP:  70;                                

SCAPPOOSE, OR  CLEAR     57  54  89 CALM      29.99F                  
6HR MIN TEMP:  56; 6HR MAX TEMP:  68;                                

PORTLAND, OR   PTCLDY    61  56  83 CALM      30.00S                  
6HR MIN TEMP:  61; 6HR MAX TEMP:  70;                                

$$
 
WAZ021-516-517-201300-
WASHINGTON COAST
  
CITY           SKY/WX    TMP DP  RH WIND       PRES   REMARKS
FORKS          FOG       50  49  96 CALM      30.05R VSB 1/4          
6HR MIN TEMP:  50; 6HR MAX TEMP:  51;                                

HOQUIAM        CLOUDY    57  56  96 S6        30.05S FOG              
6HR MIN TEMP:  56; 6HR MAX TEMP:  58;                                

ASTORIA, OR    CLOUDY    57  56  96 SW3       30.04S                  
6HR MIN TEMP:  57; 6HR MAX TEMP:  58;                                

$$
 
WAZ019-023-024-040-567>569-201300-
CASCADE MOUNTAINS AND COLUMBIA GORGE
  
CITY           SKY/WX    TMP DP  RH WIND       PRES   REMARKS
STAMPEDE PASS  NOT AVBL                                               
TROUTDALE, OR  CLEAR     59  54  83 CALM      30.00S                  
6HR MIN TEMP:  59; 6HR MAX TEMP:  71;                                

HOOD RIVER, OR PTSUNNY   59  52  77 CALM      29.97S                  
THE DALLES, OR CLOUDY    69  57  65 NW12      29.93R                  
6HR MIN TEMP:  68; 6HR MAX TEMP:  79;                                

$$

WAZ026-027-041>044-520-521-201300-
EAST SLOPES
  
CITY           SKY/WX    TMP DP  RH WIND       PRES   REMARKS
OMAK           CLOUDY    69  41  36 N16       30.01R HAZE             
6HR MIN TEMP:  64; 6HR MAX TEMP:  70;                                

WENATCHEE      CLOUDY    61  47  59 W6        29.99S HAZE             
6HR MIN TEMP:  60; 6HR MAX TEMP:  68;                                

ELLENSBURG     CLOUDY    57  49  74 NW6       30.01S HAZE             
6HR MIN TEMP:  57; 6HR MAX TEMP:  67;                                

YAKIMA         CLOUDY    58  49  72 W6        29.97S HAZE             
6HR MIN TEMP:  58; 6HR MAX TEMP:  66;                                

SUNNYSIDE ARPT SUNNY     64  48  57 W7        29.93S HAZE             
6HR MIN TEMP:  57; 6HR MAX TEMP:  79;                                

YAKIMA TC        N/A     63  48  59 CALM      29.96S FOG              
6HR MIN TEMP:  63; 6HR MAX TEMP:  72;                                

$$

WAZ028-034-035-201300-
COLUMBIA BASIN
  
CITY           SKY/WX    TMP DP  RH WIND       PRES   REMARKS
EPHRATA        CLOUDY    70  36  28 NW18      29.95S HAZE             
6HR MIN TEMP:  70; 6HR MAX TEMP:  77;                                

MOSES LAKE     CLOUDY    59  41  51 NE5       29.96R HAZE             
6HR MIN TEMP:  58; 6HR MAX TEMP:  70;                                

PASCO          MOCLDY    59  50  72 E3        29.92R HAZE             
6HR MIN TEMP:  57; 6HR MAX TEMP:  67;                                

RICHLAND ARPT  MOSUNNY   60  48  64 NW3       29.92R HAZE             
6HR MIN TEMP:  58; 6HR MAX TEMP:  71;                                

HERMISTON, OR  CLOUDY    63  45  51 S8        29.92R HAZE             
6HR MIN TEMP:  63; 6HR MAX TEMP:  75;                                

$$

WAZ036>038-201300-
NORTHEAST WASHINGTON
  
CITY           SKY/WX    TMP DP  RH WIND       PRES   REMARKS
SPOKANE GEIGER CLOUDY    59  45  59 CALM      29.99R SMOKE            
6HR MIN TEMP:  58; 6HR MAX TEMP:  65;                                

SPOKANE FELTS  SMOKE     54  48  80 CALM      29.99R VSB 1            
6HR MIN TEMP:  54; 6HR MAX TEMP:  61;                                

FAIRCHILD AFB    N/A     55  41  60 CALM      29.99R VSB 5/8          
6HR MIN TEMP:  52; 6HR MAX TEMP:  62;                                

COEURDALENE,ID PTCLDY    61  47  59 N12       29.99R HAZE             
6HR MIN TEMP:  56; 6HR MAX TEMP:  62;                                

DEER PARK      CLOUDY    51  42  71 NW3       29.99R HAZE             
6HR MIN TEMP:  50; 6HR MAX TEMP:  57;                                

$$

WAZ029>033-201300-
SOUTHEAST WASHINGTON
  
CITY           SKY/WX    TMP DP  RH WIND       PRES   REMARKS
PULLMAN        CLOUDY    62  45  53 CALM      30.00S HAZE             
6HR MIN TEMP:  58; 6HR MAX TEMP:  65;                                

LEWISTON, ID   CLOUDY    74  46  36 CALM      29.91F HAZE             
6HR MIN TEMP:  73; 6HR MAX TEMP:  79;                                

WALLA WALLA    HAZE      72  39  30 SW3       29.92S VSB 3/4          
6HR MIN TEMP:  69; 6HR MAX TEMP:  77;                                

PENDLETON, OR  CLOUDY    67  38  34 SW5       29.95R HAZE             
6HR MIN TEMP:  67; 6HR MAX TEMP:  75;                                

$$